ECHOSTAR 23

Last updated on Fri Dec 19 2025 00:02:52 GMT+0000 (Coordinated Universal Time)

1 42070U 17014A 25352.60352825 .00000000 00000+0 00000+0 0 9992 2 42070 0.0264 11.7183 0002130 253.8422 289.2659 1.00271429 32114
UTC large
Height (km)
Speed (km/s)
/
Latitude / Longitude
Inclination (degrees)
Orbital Period (minutes)
Azimuth
Elevation
Range (km)
Doppler Factor

Next 0 passes for location: London (51.5072 / 0.1276)

Sorry there are no passes over London.